Wind_Speed
14 14 13 13 12 12 12 13 13 14 14 14 15 16 17 18 18 17 17 17 17 18 18 19 18 18 18 19 19 20 20 21 20 20 20 20 20 20 20 19 19 19 19
14 14 14 13 12 12 12 13 14 14 15 14 14 15 17 18 19 19 18 18 18 19 19 19 19 20 20 20 20 21 21 21 22 22 22 21 21 22 22 21 20 20 20
13 14 14 14 13 13 13 13 14 15 15 15 15 16 17 18 18 19 19 18 18 18 19 19 20 21 21 21 21 21 22 22 23 23 23 23 23 23 23 23 22 22 21
14 15 14 13 13 13 14 14 15 16 15 16 16 16 17 18 19 19 19 19 19 19 19 19 20 21 21 22 22 22 22 23 23 23 23 24 24 25 24 24 24 24 23
15 15 14 13 13 13 14 15 15 15 16 17 17 17 17 18 19 19 19 20 20 20 20 20 21 21 22 21 22 23 23 23 23 23 23 24 24 25 25 25 25 25 25
14 14 13 13 13 14 14 15 15 15 16 17 17 18 18 19 19 20 20 19 20 20 20 20 21 21 21 22 21 22 23 24 23 23 24 24 24 25 26 26 26 26 26
13 13 12 13 13 14 14 15 16 16 16 17 17 18 18 18 19 20 20 19 20 21 20 20 20 20 20 21 22 22 23 23 24 24 25 25 25 25 26 26 27 26 26
13 12 13 13 13 13 14 15 15 15 16 17 17 17 18 18 19 19 20 20 20 21 22 21 21 21 21 21 22 22 23 25 25 25 25 25 26 26 26 26 26 27 27
14 13 13 13 13 14 15 15 16 16 16 16 16 17 17 17 17 18 19 20 20 21 22 22 22 22 22 22 23 23 24 24 25 25 26 26 27 27 27 27 27 28 28
15 14 14 14 15 16 16 16 16 16 16 17 16 16 17 17 17 18 19 20 20 20 21 22 22 22 22 22 23 23 24 23 24 25 26 27 27 28 29 29 29 30 30
15 15 15 15 16 16 16 16 16 16 16 16 16 16 16 17 18 19 19 20 20 20 20 20 21 22 22 22 22 23 23 24 25 25 25 26 28 28 29 30 30 31 32
16 15 16 16 17 17 17 17 16 16 16 16 16 15 15 16 17 18 19 20 20 20 20 20 20 21 22 23 23 23 23 24 25 25 26 27 27 28 29 31 31 31 31
16 17 17 17 18 18 18 17 17 16 16 16 15 15 16 16 17 18 19 20 19 20 20 21 22 22 22 23 24 24 24 24 24 25 26 27 27 28 29 30 32 32 32
16 16 17 17 18 18 18 17 17 17 16 16 16 16 16 17 17 18 18 18 19 20 21 22 23 23 23 24 24 24 24 24 25 25 26 26 27 28 29 30 30 31 32
16 16 17 17 18 18 18 17 17 17 17 16 16 16 17 17 17 17 18 18 19 20 21 22 23 24 24 24 24 24 25 25 25 25 25 25 26 27 28 29 30 31 31
16 16 16 16 17 18 18 17 16 17 17 18 18 18 18 18 18 18 19 19 19 20 21 22 22 23 23 24 24 24 24 24 24 24 24 24 25 27 27 28 29 31 31
16 16 16 16 17 18 18 18 17 18 18 18 18 18 18 18 19 19 19 19 19 20 20 20 20 21 22 23 23 24 23 23 23 23 23 23 24 25 25 26 27 29 30
16 16 16 16 17 18 18 18 18 18 17 17 17 17 17 18 18 19 18 18 18 18 18 18 19 19 20 21 22 23 22 22 22 23 23 23 23 22 23 24 25 27 28
17 17 17 17 17 17 18 18 18 17 16 16 15 15 15 16 17 17 17 17 17 17 17 17 17 18 19 20 21 21 22 21 22 22 22 22 22 22 21 22 23 25 26
17 18 18 18 17 17 17 17 16 15 13 13 13 13 14 15 16 16 16 16 16 17 16 17 17 17 18 18 19 19 20 20 21 21 21 21 21 21 21 21 22 22 23
19 19 19 18 17 17 17 16 14 13 13 12 13 13 12 13 14 15 15 15 15 15 16 16 16 17 17 18 18 18 19 19 19 20 20 19 19 19 20 19 19 19 21
19 19 18 18 18 17 16 15 14 13 13 12 12 12 12 12 12 13 14 15 15 15 16 16 16 17 17 17 18 18 18 19 19 18 18 18 18 18 18 18 18 18 19
19 19 19 18 18 17 16 15 14 13 13 12 12 11 12 12 12 12 13 14 15 15 16 16 17 17 16 16 16 17 17 17 17 17 17 17 17 17 17 17 16 16 17
19 19 19 19 18 17 15 15 14 13 13 12 12 13 12 12 12 13 13 13 14 15 15 16 16 15 15 15 15 15 15 15 15 16 16 15 15 15 15 15 15 15 16
20 19 19 19 18 16 16 14 13 13 13 13 13 13 12 12 12 12 12 13 13 13 14 15 15 15 15 14 14 14 14 14 13 14 14 14 13 14 14 14 14 14 15
20 19 19 18 17 16 16 15 14 13 13 13 13 13 13 13 13 13 13 13 13 13 13 13 14 14 14 14 14 13 13 13 13 13 13 12 12 12 13 13 13 14 15
Wind_Direction
297 295 290 288 283 280 275 272 269 266 262 259 257 258 257 256 256 257 257 256 256 258 254 253 253 252 254 253 254 253 251 250 250 250 249 249 248 247 245 246 246 245 246
299 297 293 289 285 281 275 273 270 268 263 261 261 260 260 259 260 258 258 254 255 257 256 255 255 255 255 254 255 254 253 251 250 251 251 249 250 250 248 248 247 246 246
302 301 294 290 285 280 276 272 267 266 263 262 263 262 261 260 260 260 258 255 256 258 260 258 256 256 254 253 256 254 252 251 252 253 252 251 250 250 250 250 248 247 247
305 301 297 290 284 281 277 273 269 267 266 264 263 262 260 259 259 260 258 257 258 261 262 260 258 259 259 258 255 255 254 252 253 254 254 252 250 250 250 250 248 248 248
305 299 296 291 284 281 276 273 272 271 270 267 263 262 261 260 261 261 259 259 260 262 262 260 259 260 260 256 253 253 253 252 251 252 254 253 251 250 250 250 248 248 248
305 299 294 287 283 281 278 275 273 271 271 268 264 262 262 261 263 261 261 262 260 261 260 259 260 259 257 257 256 254 253 252 251 252 253 253 252 250 250 251 250 248 248
305 301 295 289 288 287 283 281 279 274 273 270 266 263 261 261 264 262 260 260 260 259 258 259 260 259 259 261 257 255 254 254 254 253 253 253 253 252 251 250 250 250 250
307 301 297 293 293 293 289 285 282 279 276 273 269 264 264 265 266 260 259 259 260 260 258 259 260 259 257 260 259 257 258 256 256 255 254 255 255 255 254 251 250 250 250
304 303 304 301 298 294 292 289 284 283 279 274 271 268 266 265 264 263 261 260 260 259 258 259 260 261 260 261 261 260 260 258 257 256 256 256 255 255 254 252 252 252 250
301 301 300 300 297 295 293 291 287 284 280 277 271 268 268 267 266 264 263 262 260 259 260 260 260 261 261 262 262 262 261 259 257 258 257 255 255 254 253 252 252 252 250
299 296 295 297 297 296 295 292 288 283 279 277 273 270 268 267 265 264 263 262 260 259 260 260 261 261 262 263 263 264 263 261 259 259 260 258 257 256 254 253 253 253 251
299 296 294 295 296 296 294 293 288 284 279 276 273 271 272 269 267 264 264 263 261 261 262 262 262 264 266 265 266 267 265 263 262 262 262 261 260 258 258 255 253 252 251
300 300 296 296 296 297 295 291 287 285 280 275 272 273 275 274 271 268 269 267 265 264 265 265 265 266 266 267 268 267 266 265 265 265 263 263 262 262 261 256 253 251 251
302 300 297 296 297 296 294 291 287 285 282 278 275 274 276 277 276 274 273 271 269 268 267 268 268 269 268 267 268 267 267 267 267 268 266 265 265 264 262 258 255 252 251
302 301 299 297 298 296 295 292 288 285 283 281 278 274 275 277 277 277 276 275 275 273 270 270 270 269 268 267 267 268 268 267 268 269 266 266 266 266 265 261 257 253 251
303 303 301 301 300 298 297 295 292 286 281 279 279 277 275 275 277 276 277 277 277 274 273 272 271 269 268 268 269 268 267 267 268 269 268 266 267 267 267 264 260 254 253
305 305 303 301 300 298 296 292 292 288 283 281 278 276 276 275 276 277 277 277 277 277 275 273 272 271 269 269 269 269 268 267 268 270 270 269 268 268 268 265 261 258 254
306 307 306 305 305 303 299 295 294 291 287 284 280 277 275 276 275 277 278 277 278 278 277 275 274 274 273 271 270 270 271 270 269 269 271 271 269 268 268 263 261 259 256
307 307 306 307 305 305 303 301 296 293 292 289 285 280 277 276 276 277 277 277 277 278 277 276 277 277 275 274 272 272 271 269 270 270 271 271 271 270 268 264 261 259 257
304 305 305 306 305 305 304 303 299 294 293 292 291 287 284 279 276 277 276 275 277 279 278 277 278 279 278 275 272 272 271 270 271 272 272 272 271 270 269 265 262 259 256
302 305 306 304 305 304 302 300 294 292 290 291 291 288 288 286 280 279 278 276 278 281 280 280 281 279 279 276 273 272 271 270 273 275 274 273 271 271 268 265 262 260 255
300 303 306 306 304 303 301 298 291 288 288 288 289 288 289 287 286 285 280 279 279 280 281 284 283 279 278 278 277 273 272 271 273 274 274 273 271 269 265 266 264 260 254
298 300 303 306 304 300 297 298 293 288 283 282 284 286 289 288 288 290 290 287 284 282 285 286 283 282 279 280 279 276 275 272 272 270 272 272 270 270 268 267 264 258 252
296 296 299 301 303 302 298 294 289 285 282 280 280 284 287 287 290 288 288 291 291 290 290 289 287 284 283 283 281 280 277 277 274 272 272 270 268 269 267 263 262 257 253
293 292 295 297 299 298 298 293 288 285 280 280 279 282 285 287 287 287 287 289 292 292 292 292 290 286 285 284 283 281 277 279 281 279 276 273 267 267 266 260 260 258 255
292 292 291 292 292 291 292 290 287 281 279 280 281 282 283 285 285 285 285 286 289 290 291 293 293 290 287 284 283 282 278 275 279 279 275 271 265 263 265 260 259 258 256
Height
5855 5854 5853 5852 5851 5851 5850 5850 5850 5850 5851 5851 5851 5852 5851 5852 5852 5852 5853 5853 5854 5855 5856 5856 5857 5858 5859 5860 5861 5862 5863 5864 5866 5867 5868 5869 5870 5871 5872 5874 5875 5876 5878
5851 5850 5849 5848 5848 5847 5847 5847 5847 5847 5847 5847 5847 5848 5848 5848 5848 5849 5849 5849 5850 5851 5851 5852 5853 5853 5854 5855 5856 5857 5858 5859 5861 5862 5863 5864 5865 5867 5868 5869 5870 5872 5873
5848 5846 5845 5845 5844 5843 5843 5843 5843 5843 5843 5843 5843 5843 5843 5843 5844 5844 5844 5845 5845 5846 5846 5846 5847 5848 5849 5850 5851 5852 5853 5855 5856 5857 5858 5859 5860 5862 5863 5865 5866 5867 5869
5844 5843 5842 5841 5840 5840 5839 5839 5839 5839 5839 5839 5839 5839 5839 5839 5839 5839 5840 5840 5841 5841 5841 5841 5842 5843 5844 5845 5846 5847 5848 5849 5850 5851 5852 5854 5855 5856 5858 5860 5861 5862 5864
5841 5839 5838 5837 5836 5836 5835 5835 5835 5835 5835 5835 5835 5835 5834 5834 5835 5835 5835 5835 5836 5836 5836 5836 5837 5837 5838 5839 5840 5841 5843 5844 5845 5845 5847 5848 5849 5850 5852 5854 5855 5857 5858
5837 5836 5834 5833 5832 5832 5831 5831 5831 5830 5830 5830 5830 5830 5830 5829 5829 5830 5830 5831 5831 5831 5831 5831 5832 5833 5833 5834 5835 5836 5837 5838 5839 5840 5841 5842 5843 5844 5846 5848 5849 5851 5852
5833 5832 5831 5830 5829 5828 5827 5827 5826 5826 5825 5825 5825 5825 5825 5824 5825 5825 5825 5826 5826 5826 5826 5827 5827 5828 5828 5828 5829 5830 5831 5832 5833 5834 5835 5836 5837 5838 5839 5841 5843 5844 5846
5830 5829 5828 5826 5825 5824 5823 5822 5821 5821 5820 5820 5820 5819 5820 5820 5819 5819 5820 5820 5820 5821 5821 5821 5822 5822 5822 5823 5823 5824 5825 5825 5826 5827 5829 5830 5831 5832 5833 5834 5836 5837 5839
5827 5826 5824 5823 5821 5820 5819 5818 5817 5816 5815 5815 5815 5815 5815 5815 5815 5815 5814 5814 5815 5815 5815 5816 5816 5816 5816 5817 5817 5817 5818 5818 5819 5820 5822 5823 5824 5825 5826 5827 5829 5830 5832
5823 5822 5821 5819 5818 5816 5814 5813 5812 5811 5810 5810 5810 5809 5809 5809 5809 5809 5809 5809 5809 5809 5810 5810 5810 5810 5811 5811 5811 5811 5812 5812 5813 5814 5814 5815 5816 5818 5819 5820 5821 5822 5824
5819 5818 5816 5815 5813 5812 5810 5808 5806 5805 5805 5804 5804 5804 5804 5804 5803 5804 5804 5804 5804 5804 5804 5804 5804 5804 5805 5805 5805 5805 5805 5806 5806 5807 5807 5807 5808 5809 5811 5812 5813 5814 5815
5815 5813 5812 5810 5808 5807 5805 5803 5801 5800 5799 5799 5799 5798 5798 5798 5798 5798 5798 5798 5798 5798 5798 5798 5798 5798 5798 5798 5798 5798 5798 5798 5799 5799 5799 5800 5800 5801 5802 5803 5803 5805 5806
5811 5809 5807 5806 5804 5802 5800 5798 5796 5795 5794 5793 5793 5793 5793 5792 5792 5792 5792 5792 5792 5792 5792 5791 5791 5791 5791 5791 5791 5791 5791 5791 5791 5791 5791 5792 5792 5792 5793 5793 5794 5795 5797
5807 5805 5803 5801 5799 5797 5795 5793 5791 5790 5789 5788 5788 5788 5787 5787 5786 5786 5786 5785 5785 5785 5785 5785 5784 5784 5784 5784 5783 5783 5783 5783 5783 5783 5783 5783 5783 5783 5784 5784 5785 5786 5788
5803 5800 5798 5796 5793 5791 5789 5787 5786 5784 5783 5783 5782 5782 5782 5781 5780 5780 5779 5779 5779 5779 5779 5778 5777 5776 5776 5776 5776 5776 5775 5775 5775 5775 5775 5775 5774 5774 5775 5775 5776 5777 5779
5798 5796 5793 5791 5788 5786 5784 5782 5780 5778 5778 5777 5776 5776 5775 5775 5774 5774 5773 5773 5772 5771 5771 5771 5770 5769 5769 5769 5768 5768 5768 5768 5768 5767 5767 5766 5766 5765 5766 5766 5766 5768 5769
5794 5791 5789 5786 5783 5781 5778 5776 5774 5772 5771 5770 5770 5769 5769 5769 5768 5768 5767 5766 5765 5764 5764 5764 5763 5762 5761 5761 5761 5761 5760 5760 5760 5760 5759 5758 5758 5757 5757 5757 5757 5758 5760
5789 5787 5784 5781 5779 5776 5773 5770 5768 5766 5765 5764 5763 5763 5762 5762 5762 5761 5761 5760 5759 5758 5758 5757 5756 5755 5754 5754 5753 5753 5753 5752 5752 5752 5752 5751 5750 5749 5749 5749 5749 5750 5751
5785 5782 5780 5777 5774 5771 5768 5765 5762 5761 5759 5758 5757 5756 5756 5756 5756 5755 5755 5754 5753 5752 5752 5751 5750 5749 5748 5747 5746 5746 5746 5746 5745 5745 5744 5744 5743 5742 5742 5741 5741 5742 5743
5781 5778 5775 5772 5768 5765 5762 5759 5757 5755 5754 5753 5752 5751 5751 5750 5750 5749 5749 5748 5747 5747 5746 5745 5744 5743 5742 5741 5740 5740 5739 5739 5738 5738 5737 5737 5736 5735 5735 5735 5735 5735 5735
5776 5773 5770 5766 5763 5760 5757 5754 5752 5751 5750 5748 5748 5747 5746 5745 5745 5744 5743 5743 5742 5741 5740 5740 5739 5738 5736 5735 5735 5734 5733 5733 5732 5731 5731 5730 5730 5729 5729 5728 5728 5728 5729
5771 5768 5765 5762 5758 5755 5752 5750 5748 5747 5746 5745 5744 5743 5742 5742 5741 5740 5739 5738 5737 5736 5736 5735 5733 5732 5731 5730 5729 5728 5727 5727 5726 5726 5725 5724 5724 5724 5723 5723 5723 5723 5723
5766 5763 5760 5757 5753 5750 5748 5746 5744 5743 5742 5741 5740 5740 5739 5738 5737 5736 5735 5734 5732 5731 5730 5729 5728 5727 5726 5725 5723 5722 5721 5720 5720 5720 5719 5719 5719 5718 5718 5718 5718 5718 5718
5760 5758 5755 5752 5749 5746 5744 5742 5740 5739 5738 5737 5737 5736 5735 5735 5734 5732 5731 5730 5728 5727 5725 5724 5723 5722 5721 5719 5718 5717 5716 5715 5715 5714 5714 5714 5714 5714 5714 5714 5714 5714 5714
5754 5752 5750 5747 5745 5742 5740 5738 5736 5735 5735 5734 5733 5732 5731 5731 5730 5729 5728 5727 5725 5723 5721 5720 5718 5717 5716 5715 5713 5712 5711 5710 5710 5710 5710 5710 5710 5710 5710 5710 5710 5710 5711
5749 5746 5744 5742 5740 5738 5736 5734 5733 5732 5731 5731 5730 5729 5728 5727 5726 5725 5724 5723 5721 5720 5718 5716 5714 5713 5711 5710 5709 5708 5707 5706 5706 5706 5706 5706 5706 5706 5706 5707 5707 5707 5707